Year,Month,Day,Hour,Minute,Value (Times are PST for temperature in C)
2018,10,17,00,00,13.40
2018,10,17,00,01,13.40
2018,10,17,00,02,13.40
2018,10,17,00,03,13.40
2018,10,17,00,04,13.40
2018,10,17,00,05,13.40
2018,10,17,00,06,13.40
2018,10,17,00,07,13.40
2018,10,17,00,08,13.40
2018,10,17,00,09,13.40
2018,10,17,00,10,13.40
2018,10,17,00,11,13.40
2018,10,17,00,12,13.40
2018,10,17,00,13,13.40
2018,10,17,00,14,13.40
2018,10,17,00,15,13.40
2018,10,17,00,16,13.30
2018,10,17,00,17,13.30
2018,10,17,00,18,13.30
2018,10,17,00,19,13.30
2018,10,17,00,20,13.30
2018,10,17,00,21,13.30
2018,10,17,00,22,13.30
2018,10,17,00,23,13.30
2018,10,17,00,24,13.30
2018,10,17,00,25,13.30
2018,10,17,00,26,13.30
2018,10,17,00,27,13.30
2018,10,17,00,28,13.30
2018,10,17,00,29,13.30
2018,10,17,00,30,13.30
2018,10,17,00,31,13.30
2018,10,17,00,32,13.30
2018,10,17,00,33,13.30
2018,10,17,00,34,13.30
2018,10,17,00,35,13.30
2018,10,17,00,36,13.30
2018,10,17,00,37,13.30
2018,10,17,00,38,13.30
2018,10,17,00,39,13.30
2018,10,17,00,40,13.30
2018,10,17,00,41,13.30
2018,10,17,00,42,13.30
2018,10,17,00,43,13.30
2018,10,17,00,44,13.30
2018,10,17,00,45,13.30
2018,10,17,00,46,13.20
2018,10,17,00,47,13.20
2018,10,17,00,48,13.30
2018,10,17,00,49,13.30
2018,10,17,00,50,13.30
2018,10,17,00,51,13.30
2018,10,17,00,52,13.30
2018,10,17,00,53,13.30
2018,10,17,00,54,13.30
2018,10,17,00,55,13.30
2018,10,17,00,56,13.30
2018,10,17,00,57,13.30
2018,10,17,00,58,13.30
2018,10,17,00,59,13.40
2018,10,17,01,00,13.30
2018,10,17,01,01,13.30
2018,10,17,01,02,13.30
2018,10,17,01,03,13.30
2018,10,17,01,04,13.30
2018,10,17,01,05,13.30
2018,10,17,01,06,13.30
2018,10,17,01,07,13.30
2018,10,17,01,08,13.20
2018,10,17,01,09,13.20
2018,10,17,01,10,13.20
2018,10,17,01,11,13.20
2018,10,17,01,12,13.20
2018,10,17,01,13,13.10
2018,10,17,01,14,13.10
2018,10,17,01,15,13.10
2018,10,17,01,16,13.00
2018,10,17,01,17,13.00
2018,10,17,01,18,12.90
2018,10,17,01,19,12.90
2018,10,17,01,20,12.90
2018,10,17,01,21,12.80
2018,10,17,01,22,12.80
2018,10,17,01,23,12.80
2018,10,17,01,24,12.80
2018,10,17,01,25,12.70
2018,10,17,01,26,12.70
2018,10,17,01,27,12.70
2018,10,17,01,28,12.70
2018,10,17,01,29,12.60
2018,10,17,01,30,12.60
2018,10,17,01,31,12.60
2018,10,17,01,32,12.60
2018,10,17,01,33,12.60
2018,10,17,01,34,12.60
2018,10,17,01,35,12.60
2018,10,17,01,36,12.60
2018,10,17,01,37,12.50
2018,10,17,01,38,12.50
2018,10,17,01,39,12.50
2018,10,17,01,40,12.50
2018,10,17,01,41,12.50
2018,10,17,01,42,12.50
2018,10,17,01,43,12.50
2018,10,17,01,44,12.50
2018,10,17,01,45,12.50
2018,10,17,01,46,12.50
2018,10,17,01,47,12.50
2018,10,17,01,48,12.50
2018,10,17,01,49,12.50
2018,10,17,01,50,12.40
2018,10,17,01,51,12.40
2018,10,17,01,52,12.40
2018,10,17,01,53,12.40
2018,10,17,01,54,12.40
2018,10,17,01,55,12.40
2018,10,17,01,56,12.40
2018,10,17,01,57,12.40
2018,10,17,01,58,12.40
2018,10,17,01,59,12.40
2018,10,17,02,00,12.40
2018,10,17,02,01,12.40
2018,10,17,02,02,12.50
2018,10,17,02,03,12.50
2018,10,17,02,04,12.50
2018,10,17,02,05,12.50
2018,10,17,02,06,12.50
2018,10,17,02,07,12.50
2018,10,17,02,08,12.60
2018,10,17,02,09,12.60
2018,10,17,02,10,12.60
2018,10,17,02,11,12.60
2018,10,17,02,12,12.60
2018,10,17,02,13,12.60
2018,10,17,02,14,12.60
2018,10,17,02,15,12.60
2018,10,17,02,16,12.60
2018,10,17,02,17,12.60
2018,10,17,02,18,12.60
2018,10,17,02,19,12.60
2018,10,17,02,20,12.60
2018,10,17,02,21,12.60
2018,10,17,02,22,12.60
2018,10,17,02,23,12.50
2018,10,17,02,24,12.50
2018,10,17,02,25,12.50
2018,10,17,02,26,12.50
2018,10,17,02,27,12.50
2018,10,17,02,28,12.50
2018,10,17,02,29,12.50
2018,10,17,02,30,12.40
2018,10,17,02,31,12.40
2018,10,17,02,32,12.40
2018,10,17,02,33,12.40
2018,10,17,02,34,12.40
2018,10,17,02,35,12.40
2018,10,17,02,36,12.40
2018,10,17,02,37,12.50
2018,10,17,02,38,12.50
2018,10,17,02,39,12.50
2018,10,17,02,40,12.50
2018,10,17,02,41,12.60
2018,10,17,02,42,12.60
2018,10,17,02,43,12.60
2018,10,17,02,44,12.60
2018,10,17,02,45,12.60
2018,10,17,02,46,12.60
2018,10,17,02,47,12.60
2018,10,17,02,48,12.60
2018,10,17,02,49,12.60
2018,10,17,02,50,12.60
2018,10,17,02,51,12.60
2018,10,17,02,52,12.60
2018,10,17,02,53,12.60
2018,10,17,02,54,12.60
2018,10,17,02,55,12.60
2018,10,17,02,56,12.60
2018,10,17,02,57,12.60
2018,10,17,02,58,12.60
2018,10,17,02,59,12.60
2018,10,17,03,00,12.60
2018,10,17,03,01,12.60
2018,10,17,03,02,12.60
2018,10,17,03,03,12.60
2018,10,17,03,04,12.60
2018,10,17,03,05,12.60
2018,10,17,03,06,12.60
2018,10,17,03,07,12.60
2018,10,17,03,08,12.60
2018,10,17,03,09,12.60
2018,10,17,03,10,12.60
2018,10,17,03,11,12.60
2018,10,17,03,12,12.70
2018,10,17,03,13,12.70
2018,10,17,03,14,12.70
2018,10,17,03,15,12.70
2018,10,17,03,16,12.70
2018,10,17,03,17,12.70
2018,10,17,03,18,12.70
2018,10,17,03,19,12.70
2018,10,17,03,20,12.70
2018,10,17,03,21,12.70
2018,10,17,03,22,12.70
2018,10,17,03,23,12.70
2018,10,17,03,24,12.70
2018,10,17,03,25,12.70
2018,10,17,03,26,12.70
2018,10,17,03,27,12.70
2018,10,17,03,28,12.70
2018,10,17,03,29,12.70
2018,10,17,03,30,12.70
2018,10,17,03,31,12.70
2018,10,17,03,32,12.70
2018,10,17,03,33,12.70
2018,10,17,03,34,12.70
2018,10,17,03,35,12.70
2018,10,17,03,36,12.70
2018,10,17,03,37,12.70
2018,10,17,03,38,12.70
2018,10,17,03,39,12.70
2018,10,17,03,40,12.70
2018,10,17,03,41,12.70
2018,10,17,03,42,12.70
2018,10,17,03,43,12.70
2018,10,17,03,44,12.70
2018,10,17,03,45,12.70
2018,10,17,03,46,12.70
2018,10,17,03,47,12.70
2018,10,17,03,48,12.70
2018,10,17,03,49,12.70
2018,10,17,03,50,12.70
2018,10,17,03,51,12.70
2018,10,17,03,52,12.70
2018,10,17,03,53,12.70
2018,10,17,03,54,12.70
2018,10,17,03,55,12.70
2018,10,17,03,56,12.70
2018,10,17,03,57,12.70
2018,10,17,03,58,12.70
2018,10,17,03,59,12.70
2018,10,17,04,00,12.70
2018,10,17,04,01,12.70
2018,10,17,04,02,12.70
2018,10,17,04,03,12.60
2018,10,17,04,04,12.60
2018,10,17,04,05,12.60
2018,10,17,04,06,12.60
2018,10,17,04,07,12.60
2018,10,17,04,08,12.60
2018,10,17,04,09,12.60
2018,10,17,04,10,12.60
2018,10,17,04,11,12.60
2018,10,17,04,12,12.60
2018,10,17,04,13,12.50
2018,10,17,04,14,12.50
2018,10,17,04,15,12.50
2018,10,17,04,16,12.40
2018,10,17,04,17,12.40
2018,10,17,04,18,12.40
2018,10,17,04,19,12.40
2018,10,17,04,20,12.40
2018,10,17,04,21,12.40
2018,10,17,04,22,12.40
2018,10,17,04,23,12.40
2018,10,17,04,24,12.40
2018,10,17,04,25,12.40
2018,10,17,04,26,12.40
2018,10,17,04,27,12.40
2018,10,17,04,28,12.40
2018,10,17,04,29,12.40
2018,10,17,04,30,12.40
2018,10,17,04,31,12.30
2018,10,17,04,32,12.30
2018,10,17,04,33,12.30
2018,10,17,04,34,12.30
2018,10,17,04,35,12.30
2018,10,17,04,36,12.30
2018,10,17,04,37,12.30
2018,10,17,04,38,12.40
2018,10,17,04,39,12.40
2018,10,17,04,40,12.40
2018,10,17,04,41,12.40
2018,10,17,04,42,12.40
2018,10,17,04,43,12.40
2018,10,17,04,44,12.40
2018,10,17,04,45,12.40
2018,10,17,04,46,12.40
2018,10,17,04,47,12.40
2018,10,17,04,48,12.40
2018,10,17,04,49,12.50
2018,10,17,04,50,12.50
2018,10,17,04,51,12.50
2018,10,17,04,52,12.40
2018,10,17,04,53,12.40
2018,10,17,04,54,12.40
2018,10,17,04,55,12.40
2018,10,17,04,56,12.40
2018,10,17,04,57,12.40
2018,10,17,04,58,12.40
2018,10,17,04,59,12.40
2018,10,17,05,00,12.40
2018,10,17,05,01,12.40
2018,10,17,05,02,12.40
2018,10,17,05,03,12.40
2018,10,17,05,04,12.40
2018,10,17,05,05,12.40
2018,10,17,08,12,12.40
2018,10,17,08,13,12.40
2018,10,17,08,14,12.40
2018,10,17,08,15,12.40
2018,10,17,08,16,12.50
2018,10,17,08,17,12.50
2018,10,17,08,18,12.50
2018,10,17,08,19,12.50
2018,10,17,08,20,12.50
2018,10,17,08,21,12.60
2018,10,17,08,22,12.60
2018,10,17,08,23,12.60
2018,10,17,08,24,12.60
2018,10,17,08,25,12.70
2018,10,17,08,26,12.70
2018,10,17,08,27,12.70
2018,10,17,08,28,12.80
2018,10,17,08,29,12.80
2018,10,17,08,30,12.80
2018,10,17,08,31,12.80
2018,10,17,08,32,12.80
2018,10,17,08,33,12.90
2018,10,17,08,34,12.90
2018,10,17,08,35,13.00
2018,10,17,08,36,13.00
2018,10,17,08,37,13.10
2018,10,17,08,38,13.10
2018,10,17,08,39,13.20
2018,10,17,08,40,13.20
2018,10,17,08,41,13.20
2018,10,17,08,42,13.30
2018,10,17,08,43,13.30
2018,10,17,08,44,13.30
2018,10,17,08,45,13.40
2018,10,17,08,46,13.40
2018,10,17,08,47,13.40
2018,10,17,08,48,13.40
2018,10,17,08,49,13.40
2018,10,17,08,50,13.50
2018,10,17,08,51,13.50
2018,10,17,08,52,13.60
2018,10,17,08,53,13.60
2018,10,17,08,54,13.60
2018,10,17,08,55,13.60
2018,10,17,08,56,13.70
2018,10,17,08,57,13.70
2018,10,17,08,58,13.70
2018,10,17,08,59,13.80
2018,10,17,09,00,13.80
2018,10,17,09,01,13.90
2018,10,17,09,02,13.90
2018,10,17,09,03,14.00
2018,10,17,09,04,14.00
2018,10,17,09,05,14.10
2018,10,17,09,06,14.10
2018,10,17,09,07,14.20
2018,10,17,09,08,14.20
2018,10,17,09,09,14.20
2018,10,17,09,10,14.30
2018,10,17,09,11,14.30
2018,10,17,09,12,14.30
2018,10,17,09,13,14.40
2018,10,17,09,14,14.40
2018,10,17,09,15,14.50
2018,10,17,09,16,14.50
2018,10,17,09,17,14.60
2018,10,17,09,18,14.60
2018,10,17,09,19,14.60
2018,10,17,09,20,14.60
2018,10,17,09,21,14.60
2018,10,17,09,22,14.60
2018,10,17,09,23,14.70
2018,10,17,09,24,14.70
2018,10,17,09,25,14.70
2018,10,17,09,26,14.70
2018,10,17,09,27,14.70
2018,10,17,09,28,14.70
2018,10,17,09,29,14.70
2018,10,17,09,30,14.70
2018,10,17,09,31,14.70
2018,10,17,09,32,14.80
2018,10,17,09,33,14.80
2018,10,17,09,34,14.80
2018,10,17,09,35,14.80
2018,10,17,09,36,14.80
2018,10,17,09,37,14.80
2018,10,17,09,38,14.80
2018,10,17,09,39,14.80
2018,10,17,09,40,14.90
2018,10,17,09,41,14.90
2018,10,17,09,42,14.90
2018,10,17,09,43,14.90
2018,10,17,09,44,15.00
2018,10,17,09,45,15.00
2018,10,17,09,46,15.00
2018,10,17,09,47,15.10
2018,10,17,09,48,15.10
2018,10,17,09,49,15.10
2018,10,17,09,50,15.00
2018,10,17,09,51,15.10
2018,10,17,09,52,15.10
2018,10,17,09,53,15.10
2018,10,17,09,54,15.10
2018,10,17,09,55,15.10
2018,10,17,09,56,15.10
2018,10,17,09,57,15.10
2018,10,17,09,58,15.10
2018,10,17,09,59,15.00
2018,10,17,10,00,15.00
2018,10,17,10,01,15.00
2018,10,17,10,02,14.90
2018,10,17,10,03,14.90
2018,10,17,10,04,14.90
2018,10,17,10,05,14.90
2018,10,17,10,06,14.90
2018,10,17,10,07,14.90
2018,10,17,10,08,15.00
2018,10,17,10,09,15.00
2018,10,17,10,10,15.00
2018,10,17,10,11,15.10
2018,10,17,10,12,15.00
2018,10,17,10,13,15.10
2018,10,17,10,14,15.10
2018,10,17,10,15,15.10
2018,10,17,10,16,15.10
2018,10,17,10,17,15.20
2018,10,17,10,18,15.20
2018,10,17,10,19,15.20
2018,10,17,10,20,15.20
2018,10,17,10,21,15.30
2018,10,17,10,22,15.30
2018,10,17,10,23,15.30
2018,10,17,10,24,15.30
2018,10,17,10,25,15.40
2018,10,17,10,26,15.40
2018,10,17,10,27,15.50
2018,10,17,10,28,15.50
2018,10,17,10,29,15.60
2018,10,17,10,30,15.60
2018,10,17,10,31,15.60
2018,10,17,10,32,15.60
2018,10,17,10,33,15.70
2018,10,17,10,34,15.70
2018,10,17,10,35,15.70
2018,10,17,10,36,15.70
2018,10,17,10,37,15.70
2018,10,17,10,38,15.70
2018,10,17,10,39,15.70
2018,10,17,10,40,15.70
2018,10,17,10,41,15.70
2018,10,17,10,42,15.70
2018,10,17,10,43,15.70
2018,10,17,10,44,15.70
2018,10,17,10,45,15.70
2018,10,17,10,46,15.70
2018,10,17,10,47,15.70
2018,10,17,10,48,15.70
2018,10,17,10,49,15.70
2018,10,17,10,50,15.70
2018,10,17,10,51,15.70
2018,10,17,10,52,15.70
2018,10,17,10,53,15.80
2018,10,17,10,54,15.70
2018,10,17,10,55,15.70
2018,10,17,10,56,15.70
2018,10,17,10,57,15.70
2018,10,17,10,58,15.70
2018,10,17,10,59,15.70
2018,10,17,11,00,15.70
2018,10,17,11,01,15.70
2018,10,17,11,02,15.70
2018,10,17,11,03,15.70
2018,10,17,11,04,15.70
2018,10,17,11,05,15.70
2018,10,17,11,06,15.70
2018,10,17,11,07,15.80
2018,10,17,11,08,15.80
2018,10,17,11,09,15.80
2018,10,17,11,10,15.80
2018,10,17,11,11,15.90
2018,10,17,11,12,15.90
2018,10,17,11,13,16.00
2018,10,17,11,14,16.00
2018,10,17,11,15,16.10
2018,10,17,11,16,16.10
2018,10,17,11,17,16.10
2018,10,17,11,18,16.20
2018,10,17,11,19,16.20
2018,10,17,11,20,16.20
2018,10,17,11,21,16.20
2018,10,17,11,22,16.20
2018,10,17,11,23,16.20
2018,10,17,11,24,16.20
2018,10,17,11,25,16.30
2018,10,17,11,26,16.30
2018,10,17,11,27,16.40
2018,10,17,11,28,16.40
2018,10,17,11,29,16.50
2018,10,17,11,30,16.60
2018,10,17,11,31,16.70
2018,10,17,11,32,16.70
2018,10,17,11,33,16.80
2018,10,17,11,34,16.80
2018,10,17,11,35,16.80
2018,10,17,11,36,16.80
2018,10,17,11,37,16.70
2018,10,17,11,38,16.70
2018,10,17,11,39,16.70
2018,10,17,11,40,16.70
2018,10,17,11,41,16.60
2018,10,17,11,42,16.50
2018,10,17,11,43,16.50
2018,10,17,11,44,16.40
2018,10,17,11,45,16.40
2018,10,17,11,46,16.40
2018,10,17,11,47,16.40
2018,10,17,11,48,16.40
2018,10,17,11,49,16.40
2018,10,17,11,50,16.50
2018,10,17,11,51,16.50
2018,10,17,11,52,16.40
2018,10,17,11,53,16.40
2018,10,17,11,54,16.40
2018,10,17,11,55,16.50
2018,10,17,11,56,16.50
2018,10,17,11,57,16.60
2018,10,17,11,58,16.60
2018,10,17,11,59,16.70
2018,10,17,12,00,16.70
2018,10,17,12,01,16.70
2018,10,17,12,02,16.60
2018,10,17,12,03,16.60
2018,10,17,12,04,16.60
2018,10,17,12,05,16.60
2018,10,17,12,06,16.50
2018,10,17,12,07,16.50
2018,10,17,12,08,16.50
2018,10,17,12,09,16.60
2018,10,17,12,10,16.60
2018,10,17,12,11,16.60
2018,10,17,12,12,16.60
2018,10,17,12,13,16.70
2018,10,17,12,14,16.70
2018,10,17,12,15,16.70
2018,10,17,12,16,16.80
2018,10,17,12,17,16.80
2018,10,17,12,18,16.80
2018,10,17,12,19,16.80
2018,10,17,12,20,16.70
2018,10,17,12,21,16.70
2018,10,17,12,22,16.70
2018,10,17,12,23,16.70
2018,10,17,12,24,16.70
2018,10,17,12,25,16.70
2018,10,17,12,26,16.80
2018,10,17,12,27,16.80
2018,10,17,12,28,16.90
2018,10,17,12,29,17.00
2018,10,17,12,30,17.10
2018,10,17,12,31,17.10
2018,10,17,12,32,17.20
2018,10,17,12,33,17.20
2018,10,17,12,34,17.20
2018,10,17,12,35,17.30
2018,10,17,12,36,17.30
2018,10,17,12,37,17.30
2018,10,17,12,38,17.30
2018,10,17,12,39,17.30
2018,10,17,12,40,17.40
2018,10,17,12,41,17.40
2018,10,17,12,42,17.40
2018,10,17,12,43,17.30
2018,10,17,12,44,17.40
2018,10,17,12,45,17.40
2018,10,17,12,46,17.40
2018,10,17,12,47,17.40
2018,10,17,12,48,17.30
2018,10,17,12,49,17.30
2018,10,17,12,50,17.30
2018,10,17,12,51,17.30
2018,10,17,12,52,17.30
2018,10,17,12,53,17.30
2018,10,17,12,54,17.30
2018,10,17,12,55,17.40
2018,10,17,12,56,17.40
2018,10,17,12,57,17.40
2018,10,17,12,58,17.50
2018,10,17,12,59,17.50
2018,10,17,13,00,17.60
2018,10,17,13,01,17.60
2018,10,17,13,02,17.70
2018,10,17,13,03,17.70
2018,10,17,13,04,17.70
2018,10,17,13,05,17.80
2018,10,17,13,06,17.80
2018,10,17,13,07,17.80
2018,10,17,13,08,17.80
2018,10,17,13,09,17.80
2018,10,17,13,10,17.90
2018,10,17,13,11,17.90
2018,10,17,13,12,17.90
2018,10,17,13,13,17.90
2018,10,17,13,14,17.90
2018,10,17,13,15,18.00
2018,10,17,13,16,18.00
2018,10,17,13,17,18.00
2018,10,17,13,18,18.00
2018,10,17,13,19,18.00
2018,10,17,13,20,18.00
2018,10,17,13,21,18.00
2018,10,17,13,22,18.10
2018,10,17,13,23,18.10
2018,10,17,13,24,18.10
2018,10,17,13,25,18.20
2018,10,17,13,26,18.20
2018,10,17,13,27,18.30
2018,10,17,13,28,18.30
2018,10,17,13,29,18.30
2018,10,17,13,30,18.30
2018,10,17,13,31,18.40
2018,10,17,13,32,18.40
2018,10,17,13,33,18.50
2018,10,17,13,34,18.60
2018,10,17,13,35,18.60
2018,10,17,13,36,18.60
2018,10,17,13,37,18.70
2018,10,17,13,38,18.70
2018,10,17,13,39,18.70
2018,10,17,13,40,18.70
2018,10,17,13,41,18.70
2018,10,17,13,42,18.70
2018,10,17,13,43,18.70
2018,10,17,13,44,18.70
2018,10,17,13,45,18.70
2018,10,17,13,46,18.70
2018,10,17,13,47,18.70
2018,10,17,13,48,18.60
2018,10,17,13,49,18.60
2018,10,17,13,50,18.60
2018,10,17,13,51,18.60
2018,10,17,13,52,18.60
2018,10,17,13,53,18.50
2018,10,17,13,54,18.50
2018,10,17,13,55,18.50
2018,10,17,13,56,18.60
2018,10,17,13,57,18.60
2018,10,17,13,58,18.60
2018,10,17,13,59,18.60
2018,10,17,14,00,18.60
2018,10,17,14,01,18.60
2018,10,17,14,02,18.70
2018,10,17,14,03,18.80
2018,10,17,14,04,18.80
2018,10,17,14,05,18.80
2018,10,17,14,06,18.80
2018,10,17,14,07,18.80
2018,10,17,14,08,18.80
2018,10,17,14,09,18.80
2018,10,17,14,10,18.90
2018,10,17,14,11,18.90
2018,10,17,14,12,19.00
2018,10,17,14,13,19.00
2018,10,17,14,14,18.90
2018,10,17,14,15,18.90
2018,10,17,14,16,18.90
2018,10,17,14,17,18.90
2018,10,17,14,18,18.90
2018,10,17,14,19,18.90
2018,10,17,14,20,18.90
2018,10,17,14,21,18.90
2018,10,17,14,22,18.90
2018,10,17,14,23,18.90
2018,10,17,14,24,18.90
2018,10,17,14,25,19.00
2018,10,17,14,26,19.00
2018,10,17,14,27,19.10
2018,10,17,14,28,19.20
2018,10,17,14,29,19.20
2018,10,17,14,30,19.20
2018,10,17,14,31,19.30
2018,10,17,14,32,19.40
2018,10,17,14,33,19.40
2018,10,17,14,34,19.40
2018,10,17,14,35,19.50
2018,10,17,14,36,19.50
2018,10,17,14,37,19.50
2018,10,17,14,38,19.50
2018,10,17,14,39,19.50
2018,10,17,14,40,19.50
2018,10,17,14,41,19.50
2018,10,17,14,42,19.50
2018,10,17,14,43,19.40
2018,10,17,14,44,19.40
2018,10,17,14,45,19.40
2018,10,17,14,46,19.40
2018,10,17,14,47,19.40
2018,10,17,14,48,19.40
2018,10,17,14,49,19.40
2018,10,17,14,50,19.40
2018,10,17,14,51,19.30
2018,10,17,14,52,19.20
2018,10,17,14,53,19.20
2018,10,17,14,54,19.10
2018,10,17,14,55,19.10
2018,10,17,14,56,19.10
2018,10,17,14,57,19.10
2018,10,17,14,58,19.10
2018,10,17,14,59,19.10
2018,10,17,15,00,19.10
2018,10,17,15,01,19.10
2018,10,17,15,02,19.20
2018,10,17,15,03,19.20
2018,10,17,15,04,19.20
2018,10,17,15,05,19.20
2018,10,17,15,06,19.20
2018,10,17,15,07,19.20
2018,10,17,15,08,19.20
2018,10,17,15,09,19.30
2018,10,17,15,10,19.30
2018,10,17,15,11,19.30
2018,10,17,15,12,19.40
2018,10,17,15,13,19.40
2018,10,17,15,14,19.40
2018,10,17,15,15,19.40
2018,10,17,15,16,19.40
2018,10,17,15,17,19.50
2018,10,17,15,18,19.50
2018,10,17,15,19,19.50
2018,10,17,15,20,19.50
2018,10,17,15,21,19.50
2018,10,17,15,22,19.50
2018,10,17,15,23,19.50
2018,10,17,15,24,19.50
2018,10,17,15,25,19.50
2018,10,17,15,26,19.60
2018,10,17,15,27,19.60
2018,10,17,15,28,19.60
2018,10,17,15,29,19.60
2018,10,17,15,30,19.60
2018,10,17,15,31,19.60
2018,10,17,15,32,19.60
2018,10,17,15,33,19.60
2018,10,17,15,34,19.60
2018,10,17,15,35,19.60
2018,10,17,15,36,19.60
2018,10,17,15,37,19.50
2018,10,17,15,38,19.50
2018,10,17,15,39,19.50
2018,10,17,15,40,19.60
2018,10,17,15,41,19.60
2018,10,17,15,42,19.60
2018,10,17,15,43,19.70
2018,10,17,15,44,19.70
2018,10,17,15,45,19.70
2018,10,17,15,46,19.70
2018,10,17,15,47,19.70
2018,10,17,15,48,19.80
2018,10,17,15,49,19.80
2018,10,17,15,50,19.90
2018,10,17,15,51,19.90
2018,10,17,15,52,20.00
2018,10,17,15,53,20.00
2018,10,17,15,54,20.10
2018,10,17,15,55,20.10
2018,10,17,15,56,20.10
2018,10,17,15,57,20.20
2018,10,17,15,58,20.20
2018,10,17,15,59,20.20
2018,10,17,16,00,20.20
2018,10,17,16,01,20.20
2018,10,17,16,02,20.20
2018,10,17,16,03,20.30
2018,10,17,16,04,20.30
2018,10,17,16,05,20.30
2018,10,17,16,06,20.30
2018,10,17,16,07,20.30
2018,10,17,16,08,20.30
2018,10,17,16,09,20.30
2018,10,17,16,10,20.30
2018,10,17,16,11,20.30
2018,10,17,16,12,20.20
2018,10,17,16,13,20.20
2018,10,17,16,14,20.20
2018,10,17,16,15,20.20
2018,10,17,16,16,20.20
2018,10,17,16,17,20.20
2018,10,17,16,18,20.20
2018,10,17,16,19,20.30
2018,10,17,16,20,20.30
2018,10,17,16,21,20.30
2018,10,17,16,22,20.30
2018,10,17,16,23,20.30
2018,10,17,16,24,20.30
2018,10,17,16,25,20.30
2018,10,17,16,26,20.30
2018,10,17,16,27,20.30
2018,10,17,16,28,20.30
2018,10,17,16,29,20.30
2018,10,17,16,30,20.30
2018,10,17,16,31,20.40
2018,10,17,16,32,20.40
2018,10,17,16,33,20.40
2018,10,17,16,34,20.50
2018,10,17,16,35,20.50
2018,10,17,16,36,20.50
2018,10,17,16,37,20.60
2018,10,17,16,38,20.60
2018,10,17,16,39,20.60
2018,10,17,16,40,20.60
2018,10,17,16,41,20.50
2018,10,17,16,42,20.50
2018,10,17,16,43,20.50
2018,10,17,16,44,20.40
2018,10,17,16,45,20.40
2018,10,17,16,46,20.30
2018,10,17,16,47,20.30
2018,10,17,16,48,20.30
2018,10,17,16,49,20.30
2018,10,17,16,50,20.20
2018,10,17,16,51,20.10
2018,10,17,16,52,20.00
2018,10,17,16,53,19.90
2018,10,17,16,54,19.80
2018,10,17,16,55,19.80
2018,10,17,16,56,19.70
2018,10,17,16,57,19.60
2018,10,17,16,58,19.60
2018,10,17,16,59,19.50
2018,10,17,17,00,19.40
2018,10,17,17,01,19.40
2018,10,17,17,02,19.40
2018,10,17,17,03,19.30
2018,10,17,17,04,19.30
2018,10,17,17,05,19.30
2018,10,17,17,06,19.20
2018,10,17,17,07,19.20
2018,10,17,17,08,19.20
2018,10,17,17,09,19.20
2018,10,17,17,10,19.20
2018,10,17,17,11,19.20
2018,10,17,17,12,19.10
2018,10,17,17,13,19.10
2018,10,17,17,14,19.10
2018,10,17,17,15,19.00
2018,10,17,17,16,19.00
2018,10,17,17,17,18.90
2018,10,17,17,18,18.90
2018,10,17,17,19,18.90
2018,10,17,17,20,18.90
2018,10,17,17,21,18.80
2018,10,17,17,22,18.80
2018,10,17,17,23,18.80
2018,10,17,17,24,18.80
2018,10,17,17,25,18.80
2018,10,17,17,26,18.80
2018,10,17,17,27,18.70
2018,10,17,17,28,18.70
2018,10,17,17,29,18.70
2018,10,17,17,30,18.70
2018,10,17,17,31,18.60
2018,10,17,17,32,18.60
2018,10,17,17,33,18.60
2018,10,17,17,34,18.60
2018,10,17,17,35,18.50
2018,10,17,17,36,18.50
2018,10,17,17,37,18.50
2018,10,17,17,38,18.40
2018,10,17,17,39,18.40
2018,10,17,17,40,18.40
2018,10,17,17,41,18.30
2018,10,17,17,42,18.30
2018,10,17,17,43,18.20
2018,10,17,17,44,18.20
2018,10,17,17,45,18.10
2018,10,17,17,46,18.00
2018,10,17,17,47,18.00
2018,10,17,17,48,17.90
2018,10,17,17,49,17.80
2018,10,17,17,50,17.80
2018,10,17,17,51,17.70
2018,10,17,17,52,17.60
2018,10,17,17,53,17.50
2018,10,17,17,54,17.40
2018,10,17,17,55,17.40
2018,10,17,17,56,17.30
2018,10,17,17,57,17.30
2018,10,17,17,58,17.20
2018,10,17,17,59,17.10
2018,10,17,18,00,17.10
2018,10,17,18,01,17.00
2018,10,17,18,02,17.00
2018,10,17,18,03,16.90
2018,10,17,18,04,16.90
2018,10,17,18,05,16.80
2018,10,17,18,06,16.80
2018,10,17,18,07,16.70
2018,10,17,18,08,16.60
2018,10,17,18,09,16.60
2018,10,17,18,10,16.50
2018,10,17,18,11,16.40
2018,10,17,18,12,16.40
2018,10,17,18,13,16.30
2018,10,17,18,14,16.30
2018,10,17,18,15,16.20
2018,10,17,18,16,16.20
2018,10,17,18,17,16.10
2018,10,17,18,18,16.10
2018,10,17,18,19,16.00
2018,10,17,18,20,15.90
2018,10,17,18,21,15.90
2018,10,17,18,22,15.80
2018,10,17,18,23,15.80
2018,10,17,18,24,15.70
2018,10,17,18,25,15.60
2018,10,17,18,26,15.60
2018,10,17,18,27,15.50
2018,10,17,18,28,15.40
2018,10,17,18,29,15.40
2018,10,17,18,30,15.30
2018,10,17,18,31,15.30
2018,10,17,18,32,15.20
2018,10,17,18,33,15.10
2018,10,17,18,34,15.10
2018,10,17,18,35,15.00
2018,10,17,18,36,14.90
2018,10,17,18,37,14.80
2018,10,17,18,38,14.80
2018,10,17,18,39,14.70
2018,10,17,18,40,14.60
2018,10,17,18,41,14.60
2018,10,17,18,42,14.50
2018,10,17,18,43,14.40
2018,10,17,18,44,14.40
2018,10,17,18,45,14.30
2018,10,17,18,46,14.20
2018,10,17,18,47,14.20
2018,10,17,18,48,14.10
2018,10,17,18,49,14.10
2018,10,17,18,50,14.00
2018,10,17,18,51,14.00
2018,10,17,18,52,13.90
2018,10,17,18,53,13.90
2018,10,17,18,54,13.80
2018,10,17,18,55,13.80
2018,10,17,18,56,13.70
2018,10,17,18,57,13.70
2018,10,17,18,58,13.70
2018,10,17,18,59,13.60
2018,10,17,19,00,13.60
2018,10,17,19,01,13.60
2018,10,17,19,02,13.50
2018,10,17,19,03,13.50
2018,10,17,19,04,13.40
2018,10,17,19,05,13.40
2018,10,17,19,06,13.40
2018,10,17,19,07,13.40
2018,10,17,19,08,13.30
2018,10,17,19,09,13.30
2018,10,17,19,10,13.30
2018,10,17,19,11,13.30
2018,10,17,19,12,13.30
2018,10,17,19,13,13.30
2018,10,17,19,14,13.30
2018,10,17,19,15,13.20
2018,10,17,19,16,13.20
2018,10,17,19,17,13.20
2018,10,17,19,18,13.20
2018,10,17,19,19,13.20
2018,10,17,19,20,13.20
2018,10,17,19,21,13.20
2018,10,17,19,22,13.20
2018,10,17,19,23,13.20
2018,10,17,19,24,13.20
2018,10,17,19,25,13.20
2018,10,17,19,26,13.20
2018,10,17,19,27,13.20
2018,10,17,19,28,13.20
2018,10,17,19,29,13.10
2018,10,17,19,30,13.10
2018,10,17,19,31,13.10
2018,10,17,19,32,13.10
2018,10,17,19,33,13.00
2018,10,17,19,34,13.00
2018,10,17,19,35,12.90
2018,10,17,19,36,12.90
2018,10,17,19,37,12.90
2018,10,17,19,38,12.80
2018,10,17,19,39,12.80
2018,10,17,19,40,12.70
2018,10,17,19,41,12.70
2018,10,17,19,42,12.70
2018,10,17,19,43,12.60
2018,10,17,19,44,12.60
2018,10,17,19,45,12.60
2018,10,17,19,46,12.60
2018,10,17,19,47,12.70
2018,10,17,19,48,12.70
2018,10,17,19,49,12.70
2018,10,17,19,50,12.70
2018,10,17,19,51,12.80
2018,10,17,19,52,12.80
2018,10,17,19,53,12.80
2018,10,17,19,54,12.80
2018,10,17,19,55,12.80
2018,10,17,19,56,12.70
2018,10,17,19,57,12.70
2018,10,17,19,58,12.70
2018,10,17,19,59,12.70
2018,10,17,20,00,12.70
2018,10,17,20,01,12.70
2018,10,17,20,02,12.70
2018,10,17,20,03,12.70
2018,10,17,20,04,12.70
2018,10,17,20,05,12.80
2018,10,17,20,06,12.80
2018,10,17,20,07,12.80
2018,10,17,20,08,12.80
2018,10,17,20,09,12.80
2018,10,17,20,10,12.80
2018,10,17,20,11,12.90
2018,10,17,20,12,12.90
2018,10,17,20,13,12.90
2018,10,17,20,14,12.90
2018,10,17,20,15,12.90
2018,10,17,20,16,12.90
2018,10,17,20,17,13.00
2018,10,17,20,18,13.00
2018,10,17,20,19,13.00
2018,10,17,20,20,13.00
2018,10,17,20,21,13.10
2018,10,17,20,22,13.10
2018,10,17,20,23,13.10
2018,10,17,20,24,13.10
2018,10,17,20,25,13.10